User: anonymous   Login
Location: Newark
(48.8604°N, 2.3376°E)
Time: 22:15:26
(UTC+00:00)
Language:

NANOSAT C BR1 - Orbit

View from above orbital plane
View from above orbital plane
View from above satellite
View from above satellite

Ground track
Ground track

The orbit data is extracted from the following two-line orbital elements,

1 40024U 14033Q   21339.41373844  .00000863  00000-0  93755-4 0  9993
2 40024  97.9665 275.8998 0011492 333.7531  26.3103 14.90723158405581
Epoch (UTC): 05 December 2021 09:55:47
Eccentricity: 0.0011492
inclination: 97.9665°
perigee height: 587 km
apogee height: 603 km
right ascension of ascending node: 275.8998°
argument of perigee: 333.7531°
revolutions per day: 14.90723158
mean anomaly at epoch: 26.3103°
orbit number at epoch: 40558

The dashed part of the orbit path shows where the satellite is in the earth's shadow,  

DLR